weather.gov     
National Weather Service

Regional Weather Roundup
NWS Homepage
This page is being discontinued on March 12, 2014.
The same data is available at this site. Please update your bookmarks.
Thank you, and we apologize for the inconvenience.
Please send an email to SR-SRH.Webmaster@noaa.gov with any concerns.


Current Version
Previous Version:    01  02  03  04  05  06  07  08  09  10  11  12  13  14  15  16  17  18  19  20  21  22  23  24  25  26  27  28  29  30  
   31  32  33  34  35  36  37  38  39  40  41  42  43  44  45  46  47  48  49  50  51  52  53  54  55  56  57  58  59  60  
[Printable]
595
ASUS44 KOHX 191415
RWROHX
MIDDLE TENNESSEE HOURLY WEATHER ROUNDUP
NATIONAL WEATHER SERVICE NASHVILLE TN
900 AM CDT SAT APR 19 2014

NOTE: "FAIR" INDICATES FEW OR NO CLOUDS BELOW 12,000 FEET WITH
NO SIGNIFICANT WEATHER AND/OR OBSTRUCTIONS TO VISIBILITY.

* THESE REPORTS ARE NOT UNDER NWS QUALITY CONTROL AND MAY NOT
  REPORT WEATHER SUCH AS PRECIPITATION AND FOG.


TNZ005>011-023>034-057-059-062>066-078-080-191500
...NORTHERN MIDDLE TENNESSEE...

CITY           SKY/WX    TMP DP  RH WIND       PRES   REMARKS
BAXTER*          N/A     57  45  62 CALM        N/A
BRENTWOOD*       N/A     64  46  52 NE5         N/A
CASTALIAN SPRG   N/A     54  46  76 NE3         N/A
CLARKSVILLE    SUNNY     62  47  57 NE7       30.24R
COLUMBIA       SUNNY     61  55  82 CALM      30.19R
CROSSVILLE     CLOUDY    55  37  50 NE8       30.19S
GALLATIN         N/A     61  45  55 N10       30.22R
DICKSON        SUNNY     61  39  44 NE9       30.23R
FAIRFIELD GLAD   N/A     54  39  58 N1          N/A
GOODLETTSVILLE   N/A     59  45  58 CALM        N/A
JOELTON*         N/A     63  46  55 SE5         N/A
KINGSTON SPGS*   N/A     48  48 100 CALM        N/A
LAFAYETTE*       N/A     54  43  66 NE6         N/A
LIVINGSTON     CLOUDY    54  39  56 NE8       30.21R
MONTEREY         N/A     57  41  54 CALM        N/A
MOUNT JULIET*    N/A     64  45  48 CALM        N/A
NASHVILLE      MOSUNNY   64  44  48 NE13      30.21S
OLD HICKORY*     N/A     63  50  63 N3          N/A
PEGRAM*          N/A    N/A N/A N/A N1          N/A
PORTLAND       SUNNY     59  43  55 NE12      30.22S
SMYRNA         SUNNY     63  43  48 NE13      30.22R
SPARTA         SUNNY     55  43  62 N7        30.19R
SPRINGFIELD*     N/A     63  52  67 MISG        N/A
WHITE BLUFF*     N/A     63  43  48 NE5         N/A
$$
TNZ056-058-060-061-075>077-079-093>097-191500
...SOUTHERN MIDDLE TENNESSEE...

CITY           SKY/WX    TMP DP  RH WIND       PRES   REMARKS
CULLEOKA*        N/A     59  45  58 NW3         N/A
EAGLEVILLE*      N/A    N/A N/A N/A NE5G16      N/A
FAYETTEVILLE   PTSUNNY   55  45  69 N12       30.16R
LEWISBURG      SUNNY     61  48  62 N6        30.19R
MANCHESTER*      N/A     57  48  72 N5          N/A
MCMINNVILLE    SUNNY     57  50  77 NE8       30.18S
MOUNT PLEASANT   N/A     63  52  67 NE1         N/A
MURFREESBORO   SUNNY     59  44  57 N10       30.19S
SHELBYVILLE    SUNNY     59  46  63 N13       30.19R
SPRING HILL*     N/A     63  45  51 MISG        N/A
TULLAHOMA      SUNNY     59  41  51 NE10      30.18R
WINCHESTER     SUNNY     57  46  67 N6        30.17R
$$


...KEY TO REMARKS...
VSB - VISIBILITY IN MILES
WCI - WIND CHILL INDEX
HX  - HEAT INDEX





U.S. Dept. of Commerce
NOAA National Weather Service
1325 East West Highway
Silver Spring, MD 20910
E-mail: w-nws.webmaster@noaa.gov
Page last modified: May 16, 2007
NATIONAL WEATHER SERVICE: for Safety, for Work, for Fun - FOR LIFE